EN

Hourly Weather Bolshie Stariki

Today, 27 October, Tuesday

Time Temperature Precipitation Wind Pressure Humidity
00:00 +8°C° 0.2 mm 4 mps 753 mmHg 89%
01:00 +8°C° 0.2 mm 4 mps 753 mmHg 89%
02:00 +8°C° 0 mm 4 mps 753 mmHg 88%
03:00 +8°C° 0 mm 4 mps 753 mmHg 88%
04:00 +8°C° 0 mm 4 mps 753 mmHg 88%
05:00 +7°C° 0 mm 4 mps 752 mmHg 88%
06:00 +7°C° 0 mm 4 mps 752 mmHg 88%
07:00 +7°C° 0 mm 4 mps 752 mmHg 87%
08:00 +7°C° 0 mm 4 mps 752 mmHg 87%
09:00 +8°C° 0 mm 5 mps 752 mmHg 84%
10:00 +8°C° 0 mm 5 mps 752 mmHg 81%
11:00 +9°C° 0 mm 5 mps 752 mmHg 78%
12:00 +10°C° 0 mm 5 mps 752 mmHg 78%
13:00 +10°C° 0 mm 5 mps 752 mmHg 77%
14:00 +12°C° 0 mm 5 mps 752 mmHg 76%
15:00 +10°C° 0 mm 5 mps 752 mmHg 80%
16:00 +10°C° 0 mm 4 mps 752 mmHg 83%
17:00 +10°C° 0 mm 4 mps 752 mmHg 86%
18:00 +8°C° 0 mm 4 mps 752 mmHg 87%
19:00 +8°C° 0 mm 4 mps 752 mmHg 88%
20:00 +8°C° 0 mm 4 mps 752 mmHg 89%
21:00 +8°C° 0 mm 4 mps 751 mmHg 89%
22:00 +8°C° 0 mm 4 mps 751 mmHg 89%
23:00 +8°C° 0 mm 4 mps 751 mmHg 89%

Tomorrow, 28 October, Wednesday

Time Temperature Precipitation Wind Pressure Humidity
00:00 +8°C° 0 mm 4 mps 751 mmHg 89%
01:00 +8°C° 0 mm 5 mps 751 mmHg 88%
02:00 +9°C° 0 mm 5 mps 751 mmHg 87%
03:00 +9°C° 0 mm 5 mps 750 mmHg 89%
04:00 +9°C° 0 mm 5 mps 750 mmHg 90%
05:00 +9°C° 0 mm 5 mps 750 mmHg 91%
06:00 +10°C° 0.4 mm 4 mps 750 mmHg 91%
07:00 +10°C° 0.4 mm 4 mps 751 mmHg 91%
08:00 +10°C° 0.4 mm 4 mps 751 mmHg 91%
09:00 +10°C° 0.1 mm 4 mps 752 mmHg 91%
10:00 +11°C° 0.1 mm 3 mps 752 mmHg 90%
11:00 +11°C° 0.1 mm 3 mps 752 mmHg 89%
12:00 +11°C° 0 mm 3 mps 753 mmHg 88%
13:00 +12°C° 0 mm 2 mps 753 mmHg 87%
14:00 +12°C° 0 mm 2 mps 753 mmHg 87%
15:00 +12°C° 0 mm 2 mps 753 mmHg 89%
16:00 +12°C° 0 mm 2 mps 753 mmHg 91%
17:00 +10°C° 0 mm 2 mps 753 mmHg 93%
18:00 +10°C° 0 mm 2 mps 753 mmHg 93%
19:00 +11°C° 0 mm 3 mps 753 mmHg 92%
20:00 +11°C° 0 mm 3 mps 753 mmHg 92%
21:00 +11°C° 0 mm 3 mps 752 mmHg 92%
22:00 +11°C° 0 mm 3 mps 752 mmHg 92%
23:00 +11°C° 0 mm 3 mps 752 mmHg 92%

Day after tomorrow, 29 October, Thursday

Time Temperature Precipitation Wind Pressure Humidity
00:00 +11°C° 0 mm 3 mps 752 mmHg 92%
01:00 +11°C° 0 mm 4 mps 752 mmHg 92%
02:00 +11°C° 0 mm 4 mps 752 mmHg 93%
03:00 +11°C° 0.1 mm 3 mps 752 mmHg 93%
04:00 +11°C° 0.1 mm 3 mps 751 mmHg 93%
05:00 +11°C° 0.1 mm 3 mps 751 mmHg 94%
06:00 +11°C° 0.1 mm 3 mps 751 mmHg 93%
07:00 +11°C° 0.1 mm 3 mps 751 mmHg 93%
08:00 +11°C° 0.1 mm 3 mps 751 mmHg 92%
09:00 +11°C° 0.1 mm 3 mps 751 mmHg 92%
10:00 +11°C° 0.1 mm 3 mps 751 mmHg 91%
11:00 +11°C° 0.1 mm 3 mps 751 mmHg 91%
12:00 +11°C° 0.2 mm 3 mps 751 mmHg 91%
13:00 +11°C° 0.2 mm 3 mps 751 mmHg 91%
14:00 +11°C° 0.2 mm 3 mps 750 mmHg 90%
15:00 +11°C° 0.2 mm 3 mps 750 mmHg 91%
16:00 +10°C° 0.2 mm 2 mps 750 mmHg 91%
17:00 +10°C° 0.2 mm 2 mps 750 mmHg 92%
18:00 +10°C° 0.3 mm 2 mps 750 mmHg 92%
19:00 +10°C° 0.3 mm 2 mps 750 mmHg 93%
20:00 +10°C° 0.3 mm 2 mps 750 mmHg 93%
21:00 +10°C° 0.3 mm 2 mps 750 mmHg 94%
22:00 +10°C° 0.3 mm 2 mps 750 mmHg 94%
23:00 +9°C° 0.3 mm 2 mps 750 mmHg 95%

30 October, Friday

Time Temperature Precipitation Wind Pressure Humidity
00:00 +10°C° 0 mm 1 mps 750 mmHg 96%
01:00 +10°C° 0 mm 1 mps 749 mmHg 96%
02:00 +10°C° 0 mm 1 mps 749 mmHg 97%
03:00 +9°C° 0 mm 1 mps 749 mmHg 97%
04:00 +9°C° 0 mm 1 mps 749 mmHg 97%
05:00 +9°C° 0 mm 1 mps 749 mmHg 97%
06:00 +9°C° 0 mm 1 mps 749 mmHg 97%
07:00 +8°C° 0 mm 1 mps 750 mmHg 96%
08:00 +8°C° 0 mm 1 mps 750 mmHg 96%
09:00 +9°C° 0 mm 1 mps 750 mmHg 93%
10:00 +10°C° 0 mm 1 mps 750 mmHg 89%
11:00 +10°C° 0 mm 1 mps 750 mmHg 86%
12:00 +11°C° 0 mm 1 mps 750 mmHg 85%
13:00 +11°C° 0 mm 1 mps 750 mmHg 84%
14:00 +11°C° 0 mm 1 mps 750 mmHg 83%
15:00 +10°C° 0 mm 1 mps 750 mmHg 87%
16:00 +9°C° 0 mm 1 mps 750 mmHg 90%
17:00 +9°C° 0 mm 1 mps 751 mmHg 93%
18:00 +7°C° 0 mm 0 mps 751 mmHg 93%
19:00 +7°C° 0 mm 0 mps 751 mmHg 94%
20:00 +7°C° 0 mm 0 mps 751 mmHg 94%
21:00 +7°C° 0 mm 0 mps 752 mmHg 94%
22:00 +7°C° 0 mm 0 mps 752 mmHg 94%
23:00 +7°C° 0 mm 1 mps 752 mmHg 95%

31 October, Saturday

Time Temperature Precipitation Wind Pressure Humidity
00:00 +7°C° 0 mm 1 mps 753 mmHg 95%
01:00 +6°C° 0 mm 0 mps 753 mmHg 95%
02:00 +6°C° 0 mm 0 mps 753 mmHg 95%
03:00 +6°C° 0 mm 0 mps 754 mmHg 95%
04:00 +5°C° 0 mm 0 mps 754 mmHg 96%
05:00 +6°C° 0 mm 1 mps 755 mmHg 96%
06:00 +6°C° 0 mm 1 mps 755 mmHg 96%
07:00 +6°C° 0 mm 1 mps 756 mmHg 96%
08:00 +6°C° 0 mm 1 mps 756 mmHg 96%
09:00 +7°C° 0 mm 1 mps 757 mmHg 93%
10:00 +8°C° 0 mm 1 mps 757 mmHg 89%
11:00 +9°C° 0 mm 1 mps 758 mmHg 86%
12:00 +10°C° 0 mm 1 mps 758 mmHg 84%
13:00 +10°C° 0 mm 1 mps 758 mmHg 83%
14:00 +10°C° 0 mm 1 mps 759 mmHg 82%
15:00 +9°C° 0 mm 1 mps 759 mmHg 86%
16:00 +8°C° 0 mm 1 mps 759 mmHg 90%
17:00 +7°C° 0 mm 1 mps 760 mmHg 94%
18:00 +6°C° 0 mm 0 mps 760 mmHg 94%
19:00 +6°C° 0 mm 0 mps 761 mmHg 95%
20:00 +5°C° 0 mm 0 mps 761 mmHg 95%
21:00 +5°C° 0 mm 0 mps 761 mmHg 96%
22:00 +5°C° 0 mm 0 mps 761 mmHg 96%
23:00 +4°C° 0 mm 0 mps 761 mmHg 96%

1 November, Sunday

Time Temperature Precipitation Wind Pressure Humidity
00:00 +4°C° 0 mm 0 mps 761 mmHg 96%
01:00 +4°C° 0 mm 0 mps 762 mmHg 96%
02:00 +5°C° 0 mm 1 mps 762 mmHg 96%
03:00 +5°C° 0 mm 1 mps 762 mmHg 96%
04:00 +5°C° 0 mm 1 mps 762 mmHg 96%
05:00 +5°C° 0 mm 1 mps 762 mmHg 97%
06:00 +5°C° 0 mm 1 mps 762 mmHg 96%
07:00 +5°C° 0 mm 1 mps 762 mmHg 96%
08:00 +4°C° 0 mm 2 mps 762 mmHg 96%
09:00 +5°C° 0 mm 2 mps 762 mmHg 94%
10:00 +5°C° 0 mm 2 mps 762 mmHg 92%
11:00 +6°C° 0 mm 2 mps 762 mmHg 90%
12:00 +6°C° 0 mm 2 mps 762 mmHg 89%
13:00 +6°C° 0 mm 2 mps 762 mmHg 88%
14:00 +7°C° 0 mm 2 mps 762 mmHg 86%
15:00 +6°C° 0 mm 2 mps 762 mmHg 88%
16:00 +6°C° 0 mm 2 mps 762 mmHg 90%
17:00 +5°C° 0 mm 2 mps 762 mmHg 91%
18:00 +5°C° 0 mm 2 mps 762 mmHg 93%
19:00 +4°C° 0 mm 2 mps 762 mmHg 94%
20:00 +4°C° 0 mm 2 mps 762 mmHg 95%
21:00 +4°C° 0 mm 2 mps 762 mmHg 95%
22:00 +4°C° 0 mm 2 mps 762 mmHg 95%
23:00 +3°C° 0 mm 2 mps 762 mmHg 95%
Show more